Tracking 19145 objects as of 26-Apr-2018
HD Live streaming from Space Station
objects crossing your sky now

THORAD AGENA D DEB

Track THORAD AGENA D DEB now!
10-day predictions


NORAD ID: 4171
Int'l Code: 1969-082AP
Perigee: 766.7 km
Apogee: 823.1 km
Inclination: 70.1 °
Period: 100.6 minutes
Semi major axis: 7165 km
RCS: 0.0461 m2 (small)
Launch date: September 30, 1969
Source: United States (US)
Launch site: AIR FORCE WESTERN TEST RANGE (AFWTR)

Note: This is SATELLITE DEBRIS
aabbcc
Your satellite tracking list
Your tracking list is empty




NASA's NSSDC Master Catalog

Two Line Element Set (TLE):
1  4171U 69082AP  18115.93708688 +.00000172 +00000-0 +86099-4 0  9999
2  4171 070.0789 068.4658 0039371 312.0096 047.7679 14.31197310513073
Source of the keplerian elements: AFSPC